Temp
9 9 9 9 9 9 8 9 9 9 9 8 8 9 8 9 8 8 8 8 8 7 7 8 8 8 8 9 9 9 10 10 10 9 9 9 9 9 8 9 8 8 8
9 9 9 9 9 8 8 8 9 9 9 8 8 8 8 8 8 8 8 8 8 7 7 8 8 9 9 9 9 9 9 9 9 9 9 9 9 9 8 8 8 8 7
9 9 9 9 9 8 8 8 8 8 8 8 8 8 8 8 8 8 8 8 7 7 8 8 8 8 9 9 9 9 9 9 9 9 8 8 8 8 8 8 7 7 7
10 9 8 8 8 8 8 8 8 8 9 9 8 8 8 8 8 8 8 7 7 8 8 8 8 9 8 8 9 9 9 9 9 9 8 8 8 8 8 8 7 7 7
9 9 8 8 8 8 8 8 8 8 8 8 8 8 8 8 8 8 8 8 8 8 8 8 8 8 8 8 8 9 9 9 9 9 8 8 8 8 8 8 7 7 6
9 9 8 8 8 8 8 8 8 8 8 8 8 8 8 8 8 8 8 8 8 8 8 8 8 8 8 8 8 8 8 8 8 8 8 8 8 7 7 7 7 7 6
9 9 9 8 8 8 8 8 8 8 8 8 8 8 8 8 8 8 7 7 8 8 8 8 8 8 8 8 8 8 8 8 8 8 8 8 7 7 7 7 7 7 7
9 9 9 9 8 8 8 8 7 8 7 7 7 7 8 8 8 8 8 8 7 7 7 8 8 8 8 8 8 8 8 8 7 7 7 8 7 7 7 7 6 6 6
8 8 8 8 8 8 8 8 8 7 8 8 7 7 7 7 7 8 8 8 8 7 7 7 7 8 8 8 8 8 8 8 7 7 7 7 7 7 6 6 6 6 6
8 8 8 8 8 8 8 8 8 8 7 8 8 7 7 7 7 7 7 7 8 8 8 7 7 7 7 8 8 8 8 8 7 7 7 7 7 7 6 6 6 6 6
8 8 8 8 8 8 8 8 8 8 7 7 7 7 7 7 7 7 7 7 7 7 7 7 7 7 7 7 7 7 7 7 7 7 7 7 6 6 6 6 6 5 5
8 8 8 8 8 8 8 8 8 8 7 7 7 7 7 7 7 6 7 7 7 7 7 7 7 7 7 7 7 7 7 7 7 7 7 6 6 6 6 6 6 5 5
8 8 8 8 8 8 8 8 8 8 8 8 8 7 7 7 7 7 6 6 6 6 7 7 7 7 7 7 7 7 7 7 7 7 7 7 6 6 6 6 5 5 5
7 8 8 8 7 7 7 7 7 7 7 7 7 7 7 7 7 7 7 6 6 6 6 6 6 7 6 7 6 6 6 6 6 6 6 6 6 6 6 6 6 5 5
7 7 7 7 7 7 7 8 7 8 8 7 7 7 7 7 7 7 7 7 6 6 6 6 6 6 6 6 6 6 6 6 6 6 6 6 6 6 6 6 6 5 5
7 7 7 7 7 8 7 7 7 7 8 8 8 8 7 7 7 7 7 7 7 6 6 6 6 6 6 6 6 6 6 6 6 5 6 6 6 6 6 6 6 6 5
7 7 7 7 8 7 7 7 7 7 7 7 7 7 7 7 7 7 7 7 7 7 6 6 6 6 6 6 6 6 6 6 6 6 5 5 6 5 6 5 5 5 5
7 7 7 7 7 7 7 7 7 7 7 7 7 7 7 7 6 7 7 6 6 6 6 6 6 5 5 6 6 6 6 6 6 5 5 5 5 5 5 5 5 5 5
7 7 7 7 7 7 7 7 7 7 7 6 7 7 7 6 6 6 6 6 6 6 6 6 6 5 5 5 5 5 5 6 5 5 5 5 5 5 5 5 5 4 5
7 7 7 7 7 6 6 6 6 6 6 6 6 6 6 6 6 6 6 6 6 6 5 5 5 5 4 4 4 4 5 5 5 5 5 5 5 5 5 5 4 3 4
6 6 6 6 6 6 6 6 6 6 6 6 6 6 6 6 5 5 6 5 5 5 4 4 4 4 4 4 4 4 4 5 5 5 5 5 5 5 4 4 4 5 3
6 5 5 5 5 5 5 6 6 6 5 5 5 5 5 5 5 5 5 4 4 3 3 3 2 3 3 3 3 3 3 4 4 4 4 4 5 4 5 4 5 4 4
5 4 4 4 4 4 4 4 5 5 5 5 5 5 5 5 5 5 4 3 3 2 2 1 1 1 2 2 2 2 2 3 3 4 4 4 4 4 5 4 4 4 4
4 4 4 3 3 3 4 4 4 5 5 5 5 5 5 5 5 4 3 3 2 1 -0 -1 -1 -1 -1 1 1 1 2 2 2 2 3 3 4 3 4 4 4 3 4
3 3 3 3 3 4 4 4 5 5 6 6 6 6 5 4 3 2 2 2 1 -0 -1 -2 -3 -2 -1 -1 -0 1 1 1 1 1 2 2 3 3 3 4 4 4 3
3 3 3 3 3 3 4 5 5 5 6 6 6 4 3 2 2 1 1 1 0 -0 -1 -2 -3 -3 -2 -1 -1 0 1 1 2 1 2 2 2 3 2 3 3 3 3
Height
3174 3174 3175 3175 3175 3176 3175 3175 3175 3174 3174 3174 3174 3174 3173 3172 3172 3172 3171 3171 3170 3170 3169 3167 3166 3165 3165 3164 3162 3162 3162 3162 3162 3161 3161 3160 3159 3159 3157 3156 3155 3154 3153
3175 3175 3176 3176 3176 3176 3176 3176 3176 3175 3175 3175 3175 3175 3175 3174 3174 3173 3172 3172 3172 3171 3169 3168 3166 3165 3164 3164 3164 3163 3162 3162 3162 3161 3160 3160 3160 3159 3158 3156 3156 3155 3153
3175 3175 3176 3176 3177 3177 3176 3176 3176 3176 3176 3175 3175 3175 3175 3175 3174 3174 3173 3173 3172 3171 3170 3168 3166 3165 3164 3164 3164 3164 3163 3163 3162 3161 3161 3160 3160 3160 3158 3157 3156 3155 3154
3176 3176 3176 3176 3176 3176 3177 3177 3177 3176 3176 3175 3175 3175 3175 3175 3174 3174 3174 3174 3173 3172 3170 3169 3167 3165 3164 3164 3164 3164 3163 3163 3162 3162 3161 3161 3160 3160 3159 3158 3156 3155 3155
3176 3176 3176 3176 3176 3176 3177 3177 3177 3177 3176 3176 3175 3175 3175 3174 3174 3174 3173 3173 3172 3172 3171 3169 3168 3166 3165 3164 3163 3163 3163 3163 3162 3161 3162 3161 3161 3160 3159 3159 3157 3156 3155
3175 3175 3176 3175 3176 3177 3177 3177 3177 3177 3176 3176 3176 3176 3175 3175 3173 3173 3173 3172 3172 3171 3170 3169 3168 3167 3165 3164 3163 3163 3163 3162 3162 3161 3160 3160 3160 3160 3159 3158 3157 3156 3155
3174 3174 3174 3175 3176 3176 3176 3177 3177 3176 3177 3176 3176 3176 3175 3174 3174 3173 3172 3171 3170 3170 3170 3169 3167 3166 3165 3164 3163 3163 3162 3162 3161 3160 3159 3159 3159 3159 3158 3158 3157 3156 3155
3173 3174 3174 3175 3175 3175 3175 3175 3176 3175 3175 3175 3176 3176 3175 3174 3173 3173 3172 3171 3171 3169 3169 3168 3167 3166 3164 3163 3162 3161 3161 3161 3160 3159 3159 3159 3158 3158 3158 3157 3156 3156 3155
3171 3173 3173 3173 3173 3174 3174 3174 3174 3174 3174 3174 3174 3174 3174 3174 3173 3172 3172 3171 3170 3169 3168 3167 3166 3166 3165 3163 3162 3161 3160 3160 3159 3158 3158 3158 3158 3157 3157 3156 3156 3155 3154
3169 3170 3171 3171 3172 3171 3171 3171 3172 3172 3172 3172 3172 3171 3171 3171 3171 3171 3170 3170 3169 3168 3167 3166 3165 3164 3163 3162 3161 3160 3159 3159 3158 3157 3156 3157 3157 3156 3156 3155 3155 3155 3154
3168 3169 3169 3170 3170 3170 3169 3169 3169 3169 3169 3169 3169 3169 3169 3168 3168 3168 3167 3167 3166 3165 3165 3164 3164 3163 3161 3161 3159 3158 3157 3156 3156 3155 3155 3155 3155 3155 3155 3155 3154 3153 3153
3167 3167 3167 3167 3167 3167 3166 3166 3166 3166 3166 3166 3166 3165 3166 3165 3164 3164 3163 3163 3163 3162 3161 3161 3161 3160 3160 3159 3158 3157 3156 3155 3154 3153 3152 3153 3153 3152 3152 3153 3152 3152 3152
3165 3165 3165 3164 3164 3164 3164 3163 3163 3163 3162 3162 3162 3161 3161 3161 3161 3160 3160 3160 3159 3159 3158 3158 3157 3157 3156 3155 3155 3154 3154 3152 3152 3151 3150 3150 3150 3150 3150 3150 3150 3150 3150
3162 3162 3161 3161 3161 3161 3160 3160 3159 3159 3158 3158 3157 3157 3156 3156 3156 3156 3155 3155 3155 3154 3154 3153 3153 3152 3152 3151 3151 3150 3150 3149 3149 3148 3148 3148 3147 3147 3147 3147 3147 3148 3148
3159 3158 3158 3158 3157 3157 3156 3155 3155 3154 3153 3152 3152 3151 3150 3150 3149 3149 3148 3148 3149 3149 3149 3148 3147 3147 3146 3147 3147 3146 3145 3145 3145 3145 3145 3145 3144 3144 3143 3144 3144 3144 3145
3156 3155 3154 3154 3153 3152 3151 3150 3149 3148 3147 3146 3145 3144 3143 3143 3142 3141 3140 3140 3140 3140 3141 3142 3142 3141 3141 3140 3141 3141 3141 3140 3140 3140 3140 3140 3141 3140 3140 3140 3140 3141 3141
3152 3151 3150 3150 3148 3147 3146 3145 3143 3142 3140 3139 3137 3136 3135 3134 3134 3133 3132 3131 3131 3132 3131 3132 3132 3133 3133 3133 3134 3135 3134 3134 3135 3135 3135 3135 3135 3136 3136 3136 3136 3136 3137
3147 3146 3145 3144 3142 3141 3140 3138 3136 3134 3133 3131 3130 3129 3127 3126 3125 3123 3122 3122 3122 3120 3120 3121 3122 3123 3123 3124 3126 3127 3127 3128 3128 3128 3128 3129 3130 3130 3131 3131 3131 3132 3132
3142 3141 3139 3137 3135 3133 3131 3129 3127 3126 3124 3122 3120 3119 3119 3116 3115 3113 3111 3110 3111 3110 3110 3110 3111 3112 3113 3114 3115 3117 3118 3119 3120 3121 3121 3122 3123 3124 3124 3124 3125 3126 3126
3136 3134 3132 3130 3127 3125 3122 3120 3118 3116 3115 3113 3111 3109 3108 3106 3104 3102 3100 3098 3098 3098 3098 3099 3100 3100 3102 3104 3106 3106 3108 3110 3112 3112 3113 3114 3116 3118 3118 3119 3118 3120 3123
3129 3127 3125 3122 3119 3116 3114 3112 3110 3108 3106 3103 3101 3099 3097 3095 3093 3090 3087 3085 3084 3083 3083 3084 3086 3087 3089 3092 3096 3096 3097 3099 3101 3103 3105 3106 3107 3110 3110 3111 3110 3109 3111
3122 3120 3118 3115 3112 3109 3106 3104 3101 3099 3098 3095 3093 3090 3088 3085 3082 3078 3075 3073 3070 3069 3070 3070 3072 3075 3077 3081 3083 3086 3085 3089 3089 3094 3097 3099 3101 3102 3103 3103 3103 3103 3104
3116 3114 3111 3108 3105 3101 3098 3096 3093 3090 3089 3088 3084 3081 3079 3075 3070 3066 3062 3059 3057 3055 3055 3058 3058 3061 3064 3069 3073 3075 3076 3077 3082 3084 3088 3089 3091 3092 3095 3095 3095 3096 3096
3110 3108 3105 3102 3099 3095 3092 3089 3086 3082 3078 3076 3074 3073 3068 3065 3061 3057 3053 3049 3046 3043 3042 3043 3046 3049 3051 3054 3060 3064 3066 3071 3072 3076 3079 3080 3082 3084 3085 3086 3087 3088 3089
3104 3102 3100 3097 3094 3090 3087 3083 3079 3074 3070 3068 3067 3065 3063 3060 3055 3051 3046 3043 3039 3035 3033 3033 3034 3037 3041 3045 3048 3053 3057 3061 3065 3067 3067 3072 3074 3075 3079 3080 3078 3080 3082
3100 3099 3097 3094 3090 3085 3080 3075 3072 3070 3066 3064 3064 3062 3058 3054 3048 3044 3041 3037 3033 3029 3026 3024 3023 3025 3030 3034 3038 3043 3048 3052 3055 3059 3060 3063 3065 3068 3069 3070 3070 3071 3072
Wind_Speed
5 4 3 4 5 8 9 10 11 9 8 8 8 9 9 8 5 5 3 1 3 7 11 13 11 8 7 5 1 1 0 1 1 2 3 6 7 8 9 10 11 11 10
5 4 3 3 4 5 7 8 9 9 8 7 6 7 8 8 6 3 2 3 3 7 12 14 12 9 6 4 4 3 1 1 0 1 2 4 6 6 7 9 9 9 9
5 2 3 1 1 2 4 5 7 7 7 5 5 5 6 7 7 5 2 2 5 9 12 13 13 9 6 4 4 4 3 3 2 1 2 3 4 5 6 7 7 7 8
3 1 3 3 2 2 2 3 4 5 5 4 4 3 4 5 6 7 2 2 6 9 11 12 13 10 7 4 4 4 4 3 3 3 3 3 4 5 5 6 7 7 7
4 3 5 6 4 4 4 4 3 3 3 3 3 2 3 3 4 5 4 2 6 8 10 11 12 11 8 5 4 4 5 4 4 5 4 3 4 5 6 6 6 7 6
8 7 6 7 7 7 7 7 6 4 4 3 4 3 3 3 2 2 2 4 5 6 7 9 11 11 10 7 5 4 4 5 6 5 4 4 4 5 5 5 5 6 6
12 9 7 7 8 8 8 9 9 9 8 7 7 6 5 4 5 6 5 6 5 5 7 8 8 9 9 8 7 6 5 5 7 7 6 5 5 5 6 6 5 5 6
13 13 11 11 11 10 10 11 11 11 11 10 10 9 9 9 9 9 9 9 9 8 7 8 9 9 9 8 7 6 7 7 7 8 8 7 7 6 6 6 5 5 5
13 14 14 16 14 14 15 15 14 13 14 14 13 13 12 13 13 13 12 13 12 12 11 9 9 10 10 10 8 8 7 8 8 9 10 10 9 9 8 7 7 6 6
13 14 15 16 16 16 16 18 18 18 17 17 18 17 16 16 16 17 16 15 15 15 15 14 12 12 11 11 10 9 9 9 10 10 10 10 11 11 10 9 9 8 7
12 13 14 15 16 18 18 19 19 20 21 22 22 22 22 20 20 20 19 19 18 18 18 18 17 15 14 14 13 12 11 11 10 11 11 11 12 12 13 12 11 10 9
12 13 14 14 14 16 18 19 20 21 22 24 25 25 23 22 22 22 22 22 23 21 20 20 20 19 19 18 17 16 14 14 13 13 13 12 13 14 14 14 14 13 11
16 16 16 17 17 18 19 20 20 21 22 22 23 25 25 25 28 27 25 25 25 25 25 23 22 21 21 21 20 19 18 17 16 16 16 14 15 16 16 16 16 16 14
18 19 20 20 21 21 22 24 25 25 26 27 27 27 28 27 28 30 32 31 29 28 27 27 27 26 24 24 23 22 22 22 20 19 19 16 17 16 18 18 18 18 18
20 21 22 23 24 25 26 27 28 29 30 30 30 31 31 32 33 32 32 34 34 34 32 32 31 29 30 27 26 26 25 24 24 23 22 20 20 19 18 20 20 19 20
21 22 23 24 25 27 29 30 31 32 33 34 34 35 36 36 37 38 38 38 37 37 38 37 35 35 34 33 31 30 29 28 27 26 26 25 22 22 22 21 21 21 21
21 22 24 25 27 29 30 31 33 34 35 36 37 38 39 39 40 41 42 42 43 42 41 38 42 42 40 38 37 35 33 32 31 30 29 28 28 26 26 24 23 23 23
23 24 26 27 29 31 33 34 36 37 38 39 40 40 41 42 43 44 45 45 45 47 47 45 43 41 43 44 41 39 38 37 36 33 33 33 33 32 30 29 27 26 25
26 28 30 32 34 36 38 39 40 40 40 40 42 42 42 45 46 48 49 49 48 49 50 49 49 47 44 43 44 43 42 41 39 38 38 37 36 35 35 35 33 30 28
30 32 35 37 38 39 40 40 40 40 40 40 41 42 43 45 47 49 51 53 53 53 53 52 52 51 49 45 41 42 46 44 42 42 41 41 40 38 40 39 38 32 32
34 35 36 37 37 38 38 38 38 39 39 40 41 42 43 44 46 48 51 54 56 57 56 55 54 54 53 50 46 45 45 45 46 46 42 43 43 40 40 35 39 38 35
34 34 35 34 35 36 37 38 38 39 38 39 40 41 43 45 48 51 53 55 56 57 58 57 54 54 54 51 49 48 47 46 44 43 44 44 42 39 42 38 33 30 34
30 29 30 30 31 32 34 36 38 39 39 39 41 43 44 44 43 42 43 45 49 55 57 57 55 52 52 51 48 48 48 50 46 47 45 43 41 39 39 35 33 32 31
27 26 26 26 29 31 34 37 39 41 43 41 40 35 31 33 34 35 34 33 37 42 50 54 53 52 48 49 47 46 47 44 41 39 37 34 36 35 33 35 28 32 31
22 20 22 26 28 31 34 35 38 35 29 22 19 23 26 26 25 25 26 28 29 31 35 45 50 50 48 46 45 44 44 44 43 44 43 42 40 41 39 37 39 39 34
18 19 21 24 28 32 34 33 25 18 14 14 17 17 19 21 23 25 26 28 31 32 32 35 38 46 48 45 44 42 41 41 41 41 44 44 44 41 41 37 37 37 38
Wind_Direction
153 129 107 84 65 49 51 53 56 57 55 52 42 41 41 45 53 50 57 69 47 23 4 357 349 333 333 335 333 282 11 97 79 55 22 13 17 22 28 27 32 37 37
167 151 128 87 59 43 40 46 50 53 58 56 47 38 36 38 42 34 71 39 27 6 357 354 350 338 315 312 311 286 264 256 283 65 17 5 11 16 20 26 28 34 34
139 167 154 117 66 37 24 37 42 43 48 55 54 43 33 27 28 31 140 70 19 359 0 360 357 352 335 307 284 284 286 285 286 277 336 349 5 4 8 20 31 33 31
125 175 195 226 236 275 330 2 22 29 33 44 51 51 42 31 22 26 46 43 6 359 0 2 5 4 352 325 295 287 274 268 273 282 303 342 346 343 355 6 15 33 31
177 215 222 242 244 261 285 301 316 345 10 16 23 26 26 17 12 23 37 323 346 351 354 357 3 6 359 338 308 288 280 261 251 268 295 313 317 327 342 353 4 12 19
198 215 243 244 248 267 275 279 285 294 304 319 341 349 344 325 324 328 313 306 324 332 340 347 353 1 0 346 323 297 282 271 257 246 265 282 296 312 323 337 348 356 1
210 224 241 244 253 263 265 273 281 290 295 302 307 314 313 302 297 293 283 284 285 300 316 325 336 346 354 351 339 319 295 283 277 269 259 253 262 281 301 311 327 340 344
226 228 244 259 264 262 265 264 265 270 280 284 293 300 301 299 295 286 285 288 291 288 294 303 313 323 332 338 335 324 309 290 282 280 277 273 266 268 278 292 305 317 326
236 240 249 260 263 262 264 266 263 264 272 278 283 286 287 289 290 290 287 290 289 290 290 290 295 301 308 316 321 318 306 293 282 280 280 280 275 271 272 281 289 297 308
245 248 252 258 264 266 268 266 268 269 267 268 273 278 277 278 280 281 284 285 288 289 287 285 283 284 288 290 297 302 302 296 288 278 274 276 274 277 277 277 282 288 295
258 263 267 271 272 275 277 280 278 278 279 278 280 280 282 281 275 272 274 275 276 278 280 282 281 279 278 279 282 285 288 287 282 281 274 273 270 273 275 275 277 281 288
270 271 277 279 279 278 278 279 280 278 277 279 281 283 281 278 276 274 275 273 273 273 272 274 274 275 277 277 275 278 280 282 283 279 275 271 270 267 268 272 272 275 280
272 273 275 277 278 279 281 282 284 286 285 285 282 281 280 274 272 273 274 275 275 274 273 271 272 272 270 271 274 274 274 276 278 280 279 274 270 271 272 269 272 274 273
276 277 277 278 277 278 279 280 281 281 281 282 282 283 282 280 274 272 272 271 271 271 271 272 272 269 268 269 268 268 271 274 276 277 278 276 275 273 273 272 271 274 276
277 278 280 281 282 283 282 281 282 282 281 280 280 278 278 277 276 273 271 270 269 268 270 269 268 270 271 265 266 267 267 268 270 273 275 275 275 274 273 274 273 271 273
276 280 281 283 283 282 282 282 282 281 281 281 280 279 276 274 273 273 272 270 267 267 264 263 263 264 264 266 266 265 266 266 265 266 269 272 270 272 271 272 272 272 272
281 282 282 282 281 282 282 282 281 280 280 279 278 276 276 276 275 273 271 270 270 267 264 262 262 260 259 259 261 264 264 265 264 263 264 266 269 269 271 269 269 269 270
282 281 281 282 284 285 284 284 283 282 281 280 279 278 278 277 276 273 272 270 268 267 266 264 261 260 263 259 258 257 257 260 263 264 265 262 265 271 268 268 267 265 266
283 285 287 287 287 287 286 285 284 283 282 281 280 279 278 277 276 275 274 271 269 267 266 265 262 262 260 261 261 256 253 256 258 261 264 264 264 266 269 266 262 263 263
288 288 289 289 288 287 286 286 286 286 285 284 283 281 279 277 275 274 273 272 270 268 266 264 263 262 260 259 259 261 256 253 255 258 260 265 266 267 270 269 264 263 269
288 289 289 289 289 289 289 289 289 288 288 287 287 286 284 282 280 278 274 272 269 268 265 262 259 258 258 257 255 257 259 258 253 256 258 261 265 268 270 278 284 287 270
286 287 288 289 290 291 292 292 292 291 290 289 287 286 287 288 286 283 280 276 272 269 266 264 261 259 258 257 255 254 256 256 257 259 260 260 265 266 270 275 274 261 277
289 290 292 292 292 294 296 296 295 292 291 291 290 290 293 292 291 290 288 284 278 270 266 263 261 258 257 256 256 256 256 258 264 263 263 265 267 267 265 270 266 266 272
290 290 292 296 299 300 300 299 302 302 297 293 293 298 299 303 303 300 296 292 285 280 269 260 259 258 255 254 253 254 256 258 260 259 261 265 263 267 264 272 271 269 267
289 294 301 302 301 300 302 302 302 305 304 304 306 307 303 300 300 301 303 299 298 293 284 271 258 255 256 258 255 253 254 256 254 256 258 259 262 267 268 272 274 271 270
294 300 300 302 305 305 302 300 304 315 319 317 304 305 316 318 323 318 311 305 301 297 288 279 270 258 251 253 257 257 256 258 259 258 261 263 264 266 267 267 268 271 275